APRIZESAT 6 (37793 NORAD) Tracking and Keplerian Element Data

This shows tracking and keplerian element data for the satellite.

Feedback or suggestion? Click here.




ElementValue
Catalog37793
NameAPRIZESAT 6
Epoch Orbit37135
Epoch Day198.97454904
Epoch Year2018
RAAN341.3582
Inclination98.3431
Eccentricity0.004572
Argument of Perigee259.7977
Mean Anonmoly219.0962
Mean Motion14.72320774
Decay Rate4.2E-07
L11 37793U 11044F 18198.97454904 .00000042 00000-0 15332-4 0 9992
L22 37793 98.3431 341.3582 0045720 259.7977 219.0962 14.72320774371354

Live tracking and technical data element details for APRIZESAT 6 (NORAD 37793). APRIZESAT 6 can be tracked NOW for your location showing map with azimuth and elevation plus other details from your city location.

Track the satellite on the map from your city or location and see movement details for azimuth, elevation, latitude, longitude, range, height, and movement on the map or in text.







IsCatalogInMostPopularTable: catalog: 37793, numindb: 31
Update: records affected: 1



GetName: 37793 APRIZESAT 6

Hit Count: updated at: Thu, 19 Jul 2018 21:28:25 GMT